Location: Mount Graham
(32.7016°N, 109.8912°W)
Time: 16:56:47
(UTC-07:00)

Cosmos 1340 - Visible Passes

Search period start: 27 May 2015 00:00
Search period end: 06 June 2015 00:00
Orbit: 514 x 519 km, 81.2° (Epoch: 26 May)

Date Brightness Start Highest point End Pass type
(mag) Time Alt. Az. Time Alt. Az. Time Alt. Az.
27 May 4.4 03:05:36 22° SE 03:07:06 29° E 03:10:30 10° NNE visible
27 May 4.8 04:41:14 10° WSW 04:43:07 13° WNW 04:44:50 10° NW visible
28 May 4.6 02:51:18 21° ESE 02:52:18 24° E 02:55:29 10° NE visible
28 May 4.6 04:26:20 12° WSW 04:28:15 15° WNW 04:30:31 10° NW visible
29 May 4.8 02:36:57 19° ESE 02:37:31 20° E 02:40:26 10° NE visible
29 May 4.4 04:12:00 16° W 04:13:22 18° WNW 04:16:03 10° NNW visible
30 May 5.1 02:22:34 17° E 02:22:43 17° E 02:25:18 10° NE visible
30 May 4.1 03:57:37 21° W 03:58:29 22° WNW 04:01:30 10° NNW visible
31 May 5.4 02:08:09 14° E 02:08:09 14° E 02:10:03 10° ENE visible
31 May 3.8 03:43:12 26° W 03:43:36 26° WNW 03:46:52 10° NNW visible
01 Jun 5.6 01:53:43 11° E 01:53:43 11° E 01:54:33 10° ENE visible
01 Jun 3.6 03:28:45 32° WNW 03:28:45 32° WNW 03:32:12 10° NNW visible
02 Jun 3.5 03:14:16 37° WNW 03:14:16 37° WNW 03:17:29 10° N visible
03 Jun 3.5 02:59:45 41° NW 02:59:45 41° NW 03:02:43 10° N visible
04 Jun 3.7 02:45:13 41° NNW 02:45:13 41° NNW 02:47:56 10° N visible
05 Jun 4.0 02:30:40 38° N 02:30:40 38° N 02:33:08 10° N visible
